Regional Weather Roundup
Issued by NWS

Home | Current Version | Previous Version | Graphics & Text | Print | Product List | Glossary On
Versions: 1 2 3 4 5 6 7 8 9 10 11 12 13 14 15 16 17 18 19 20 21 22 23 24 25 26 27 28 29 30 31 32 33 34 35 36 37 38 39 40 41 42 43 44 45 46 47 48 49 50
000
ASUS43 KFSD 250510
RWRSD

WEATHER ROUNDUP FOR SOUTH DAKOTA
NATIONAL WEATHER SERVICE SIOUX FALLS SD
1200 AM CDT FRI APR 25 2014

NOTE: "FAIR" INDICATES FEW OR NO CLOUDS BELOW 12,000 FEET WITH NO
SIGNIFICANT WEATHER AND/OR OBSTRUCTIONS TO VISIBILITY.


SDZ001>005-009-010-012>017-250600-
NORTHWEST AND NORTH CENTRAL SOUTH DAKOTA

CITY           SKY/WX    TMP DP  RH WIND       PRES   REMARKS
BUFFALO          N/A     48  30  49 NW7       29.73R
FAITH            N/A     50  27  40 SW5       29.78R
MOBRIDGE       CLOUDY    48  28  46 E7        29.74S
$$

SDZ012>016-024>037-041>051-057-063-072>074-250600-
SOUTHWEST AND SOUTH CENTRAL SOUTH DAKOTA

CITY           SKY/WX    TMP DP  RH WIND       PRES   REMARKS
RAPID CTY ARPT CLOUDY    44  28  53 N5        29.81R
PIERRE         CLOUDY    51  25  36 SW6       29.75F
CUSTER         CLOUDY    44  24  45 NE5       29.84S
ELLSWORTH AFB  MOCLDY    47  28  47 W1        29.81R
PHILIP         MOCLDY    45  30  55 W5        29.78S
PINE RIDGE     CLOUDY    52  27  38 E9        29.80R
SPEARFISH      MOCLDY    41  27  56 S14       29.83S
WINNER         FAIR      52  25  35 SW6       29.80S
$$

SDZ004>011-016>023-039-040-250600-
NORTHEAST SOUTH DAKOTA

CITY           SKY/WX    TMP DP  RH WIND       PRES   REMARKS
ABERDEEN       MOCLDY    41  32  70 N7        29.76R
WATERTOWN      CLEAR     41  38  89 SE3       29.74R
SISSETON         N/A     42  39  89 SW12      29.71F
$$

SDZ017-020-022-023-036>040-048>070-250600-
SOUTHEAST SOUTH DAKOTA

CITY           SKY/WX    TMP DP  RH WIND       PRES   REMARKS
SIOUX FALLS    CLEAR     42  30  62 NE3       29.77R
HURON          PTCLDY    44  22  41 W8        29.75S
CHAMBERLAIN      N/A     52  21  29 N5        29.78F
MITCHELL       PTCLDY    47  24  40 W8        29.78R
YANKTON        CLEAR     48  25  40 W3        29.80R
$$

ABBREVIATIONS USED IN REMARKS
   TC - TEMPERATURE IN CELSIUS
  WCI - WIND CHILL INDEX
   HX - HEAT INDEX
  VSB - VISIBILITY




USA.gov is the U.S. government's official web portal to all federal, state and local government web resources and services.